Regional Weather Roundup
Issued by NWS

Home | Current Version | Previous Version | Text Only | Print | Product List | Glossary Off
Versions: 1 2 3 4 5 6 7 8 9 10 11 12 13 14 15 16 17 18 19 20 21 22 23 24 25 26 27 28 29 30 31 32 33 34 35 36 37 38 39 40 41 42 43 44 45 46 47 48 49 50

000
ASUS43 KDTX 281401
RWRMI
MICHIGAN HOURLY REGIONAL WEATHER ROUNDUP
NATIONAL WEATHER SERVICE DETROIT/PONTIAC MI
1000 AM EDT THU JUL 28 2016

NOTE: "FAIR" INDICATES FEW OR NO CLOUDS BELOW 12,000 FEET WITH NO
SIGNIFICANT WEATHER AND/OR OBSTRUCTION TO VISIBILITY.

MIZ047>049-052>055-059>063-066>070-074>076-081>083-281500-
SOUTHEAST LOWER MICHIGAN

CITY           SKY/WX    TMP DP  RH WIND       PRES   REMARKS
ADRIAN         CLOUDY    75  66  73 NE7       29.94S
ALMA           CLOUDY    71  71 100 NE10      29.98S
ANN ARBOR      MOSUNNY   76  67  73 N8        29.94S
BAD AXE        CLOUDY    71  64  79 NE8       29.98F
CARO           CLOUDY    73  67  81 N5        29.96F
DETROIT CITY   CLOUDY    77  69  76 N8        29.94S
DETROIT        CLOUDY    78  65  63 N8        29.94S
FLINT          MOSUNNY   78  63  59 NE10      29.96F
GROSSE ILE     CLOUDY    75  68  78 NE5       29.92S
HILLSDALE      CLOUDY    74  65  74 NE5       29.95F
HOWELL         CLOUDY    74  64  71 NE6       29.96F

CITY           SKY/WX    TMP DP  RH WIND       PRES   REMARKS
JACKSON        MOSUNNY   74  67  78 NE8       29.95F
LAMBERTVILLE   CLOUDY    76  69  78 N7        29.93S
LANSING        MOSUNNY   72  63  73 NE6       29.97S
LAPEER         PTSUNNY   74  64  68 NE6       29.97S
MASON          MOSUNNY   73  63  71 NE6       29.96F
MONROE         PTSUNNY   75  71  86 NE6       29.92F
MT. CLEMENS    CLOUDY    75  69  79 NE8       29.92F
PONTIAC        CLOUDY    74  62  66 NE10      29.95S
PORT HOPE        N/A     73  63  70 N10       29.97S
PORT HURON     CLOUDY    73  68  83 N6        29.95S
TRI CITIES     CLOUDY    73  64  73 NE10      29.98S
MIDLAND        CLOUDY    70  62  75 NE8       29.98S
TROY           MOSUNNY   76  66  70 NE5       29.96S
SAGINAW HB     CLOUDY    73  66  78 NE13      29.96F
$$
MIZ043>046-050>051-056>058-064>065-071>073-077>080-281500-
SOUTHWEST LOWER MICHIGAN

CITY           SKY/WX    TMP DP  RH WIND       PRES   REMARKS
BATTLE CREEK   MOSUNNY   73  64  73 E7        29.96S
BENTON HARBOR  PTSUNNY   78  66  66 E6        29.92F
BIG RAPIDS     CLOUDY    70  65  86 E9        29.98S
COLDWATER      MOSUNNY   75  67  77 NE5       29.95S
FREMONT        PTSUNNY   73  71  94 E12       29.96S
HOLLAND        CLOUDY    74  66  76 E6        29.94S
GRAND RAPIDS   PTSUNNY   74  65  73 E6        29.95F
IONIA          FAIR      73  66  80 NE12      29.95F
KALAMAZOO      MOSUNNY   77  64  64 NE3       29.94F
LUDINGTON      CLOUDY    72  60  65 E13       29.96R
MARSHALL       MOSUNNY   74  66  77 CALM      29.95S
MOUNT PLEASANT CLOUDY    71  68  90 NE9       29.98S
MUSKEGON       CLOUDY    76  68  76 E9        29.94S
SOUTH HAVEN    CLOUDY    74  69  84 E3        29.93F
$$
MIZ016>042-281500-
NORTHERN LOWER MICHIGAN

CITY           SKY/WX    TMP DP  RH WIND       PRES   REMARKS
ALPENA         CLOUDY    64  61  90 NW5       30.00F
BEAVER ISLAND  SUNNY     68  59  74 CALM      30.01S
BELLAIRE       CLOUDY    64  56  74 CALM      30.00F
CADILLAC       CLOUDY    64  55  72 E7        30.00S
CHARLEVOIX     CLOUDY    66  59  78 N6        30.03S
FRANKFORT      CLOUDY    65  59  82 NE3       30.00S
GAYLORD        CLOUDY    64  52  64 NE6       30.02R
GRAYLING       CLOUDY    63  55  77 NE3       30.01F
HARBOR SPRINGS CLOUDY    65  60  83 E3        30.01S
HOUGHTON LAKE  CLOUDY    62  56  80 NE7       30.01S
MANISTEE       LGT RAIN  68  55  63 E8        29.98R
OSCODA         CLOUDY    66  58  73 NW7       29.98F
PELLSTON       CLOUDY    67  57  70 CALM      30.01S
ROGERS CITY    PTSUNNY   65  60  85 NW7       30.01S
TRAVERSE CITY  CLOUDY    67  55  65 NE3       29.99S
$$
MIZ007>008-015-281500-
EASTERN UPPER MICHIGAN

CITY           SKY/WX    TMP DP  RH WIND       PRES   REMARKS
KINROSS        SUNNY     68  56  65 E10       30.01S
MACKINAC ISLAN CLOUDY    64  64  99 CALM      30.01S
S. S. MARIE    SUNNY     71  55  56 VRB6      30.01S
$$
MIZ004>006-011>014-085-281500-
CENTRAL UPPER MICHIGAN

CITY           SKY/WX    TMP DP  RH WIND       PRES   REMARKS
ESCANABA       SUNNY     66  61  82 N6        30.00S
MENOMINEE      MIX PCPN N/A N/A N/A N6          N/A
SAWYER-GWINN   SUNNY     64  57  77 NE12      30.04S
$$
MIZ001>003-009>011-084-281500-
WESTERN UPPER MICHIGAN

CITY           SKY/WX    TMP DP  RH WIND       PRES   REMARKS
IRON MOUNTAIN  MOSUNNY   66  55  67 NE7       30.02F
HOUGHTON       SUNNY     67  54  63 E12       30.07S
COPPER HARBOR    N/A     64  55  72 VRB5      30.08S
IRONWOOD       SUNNY     64  55  72 E7        30.04S
$$

ABBREVIATIONS USED IN REMARKS
   TC - TEMPERATURE IN CELSIUS
  WCI - WIND CHILL INDEX
   HX - HEAT INDEX
  VSB - VISIBILITY




USA.gov is the U.S. government's official web portal to all federal, state and local government web resources and services.